Weather History for Pensacola NAS, FL

Change the Weather History Date:

Saturday, January 26, 2013

  Actual Average Record
Temperature  
Mean Temperature 63 °F -  
Max Temperature 73 °F 59 °F 57 °F (2014)
Min Temperature 53 °F 43 °F 36 °F (2014)
Degree Days  
Heating Degree Days 2    
Growing Degree Days 13 (Base 50)    
Moisture  
Dew Point 58 °F    
Average Humidity 90    
Maximum Humidity 100    
Minimum Humidity 64    
Precipitation  
Precipitation 0.00 in - - ()
Sea Level Pressure  
Sea Level Pressure 30.23 in    
Wind  
Wind Speed 4 mph (WSW)    
Max Wind Speed 12 mph    
Max Gust Speed -    
Visibility 8 miles    
Events Rain    
Averages and records for this station are not official NWS values.
T = Trace of Precipitation, MM = Missing Value Source: NWS Daily Summary

Daily Weather History Graph

Daily Weather History Graph

Search for Another Location

Airport:

Trip Planner

Search our weather history database for the weather conditions in past years. The results will help you decide how hot, cold, wet, or windy it might be!

Date:

Astronomy

Jan. 26, 2013 Rise Set
Actual Time 6:43 AM CST 5:20 PM CST
Civil Twilight 6:17 AM CST 5:46 PM CST
Nautical Twilight 5:48 AM CST 6:15 PM CST
Astronomical Twilight 5:20 AM CST 6:43 PM CST
Moon 5:11 PM CST 6:03 AM CST
Length of Visible Light 11h 28m
Length of Day
10h 37m
Full, 100% of the Moon is Illuminated
Jan 26
Full
Jan 26
Full
Feb 3
Last Quarter
Feb 10
New
Feb 17
First Quarter

Hourly Weather History & Observations

Time (CST) Temp. Dew Point Humidity Pressure Visibility Wind Dir Wind Speed Gust Speed Precip Events Conditions
12:56 AM 59.0 °F 59.0 °F 100% 30.21 in 10.0 mi WSW 4.6 mph - 0.00 in Rain Light Rain
1:56 AM 57.0 °F 57.0 °F 100% 30.19 in 10.0 mi SW 5.8 mph - N/A   Clear
2:56 AM 60.1 °F 57.9 °F 93% 30.19 in 10.0 mi West 3.5 mph - N/A   Clear
3:56 AM 55.9 °F 55.9 °F 100% 30.19 in 10.0 mi Calm Calm - N/A   Clear
4:56 AM 55.9 °F 55.9 °F 100% 30.20 in 10.0 mi Calm Calm - 0.00 in   Clear
5:56 AM 57.0 °F 57.0 °F 100% 30.21 in 10.0 mi WNW 3.5 mph - N/A   Clear
6:56 AM 55.9 °F 55.9 °F 100% 30.24 in 10.0 mi Calm Calm - 0.00 in   Partly Cloudy
7:56 AM 61.0 °F 59.0 °F 93% 30.24 in 10.0 mi Calm Calm - N/A   Partly Cloudy
8:56 AM 64.9 °F 61.0 °F 87% 30.25 in 10.0 mi Variable 3.5 mph - N/A   Scattered Clouds
9:56 AM 66.9 °F 61.0 °F 81% 30.26 in 10.0 mi NW 6.9 mph - N/A   Mostly Cloudy
10:56 AM 69.1 °F 60.1 °F 73% 30.25 in 10.0 mi NW 5.8 mph - N/A   Mostly Cloudy
11:56 AM 72.0 °F 62.1 °F 71% 30.23 in 10.0 mi SSW 10.4 mph - N/A   Mostly Cloudy
12:56 PM 71.1 °F 61.0 °F 70% 30.21 in 10.0 mi SW 11.5 mph - N/A   Mostly Cloudy
1:56 PM 71.1 °F 62.1 °F 73% 30.20 in 10.0 mi SSW 11.5 mph - N/A   Mostly Cloudy
2:56 PM 73.0 °F 60.1 °F 64% 30.19 in 10.0 mi SW 5.8 mph - N/A   Mostly Cloudy
3:56 PM 71.1 °F 61.0 °F 70% 30.19 in 10.0 mi WSW 4.6 mph - N/A   Mostly Cloudy
4:56 PM 66.9 °F 60.1 °F 79% 30.20 in 10.0 mi SW 4.6 mph - N/A   Mostly Cloudy
5:26 PM 66.2 °F 60.8 °F 83% 30.20 in 10.0 mi SW 4.6 mph - N/A   Mostly Cloudy
5:56 PM 64.9 °F 60.1 °F 84% 30.22 in 10.0 mi Calm Calm - N/A   Mostly Cloudy
6:56 PM 63.0 °F 59.0 °F 87% 30.22 in 10.0 mi WNW 3.5 mph - N/A   Clear
7:56 PM 59.0 °F 57.9 °F 96% 30.23 in 10.0 mi Calm Calm - N/A   Clear
8:56 PM 57.0 °F 55.9 °F 96% 30.24 in 10.0 mi Calm Calm - N/A   Clear
9:52 PM 53.6 °F 53.6 °F 100% 30.25 in 1.5 mi Calm Calm - 0.00 in   Clear
9:56 PM 53.1 °F 53.1 °F 100% 30.25 in 0.8 mi Calm Calm - 0.00 in   Clear
10:05 PM 53.6 °F 53.6 °F 100% 30.25 in 2.0 mi Calm Calm - N/A   Clear
10:12 PM 53.6 °F 53.6 °F 100% 30.25 in 5.0 mi Calm Calm - N/A   Clear
10:51 PM 53.6 °F 53.6 °F 100% 30.26 in 1.8 mi Calm Calm - N/A   Mostly Cloudy
10:56 PM 55.0 °F 54.0 °F 96% 30.26 in 1.5 mi Calm Calm - N/A   Mostly Cloudy
11:06 PM 55.4 °F 55.4 °F 100% 30.26 in 8.0 mi Calm Calm - 0.00 in Rain Light Rain
11:56 PM 59.0 °F 57.9 °F 96% 30.26 in 10.0 mi NE 4.6 mph - 0.00 in   Overcast